Flag for U.S.A. Weather past 2 weeks in Charleston, South Carolina, U.S.A.

Now
68 °F

Thunderstorms. More clouds than sun.


Feels Like: 68 °F
Forecast: 66 / 76 °F
Wind: 7 mph from South

Location: Charleston Air Force Base Reporting Station

Current Time: Apr 19, 2015 at 7:23:16 PM

Latest Report: Apr 19, 2015 at 6:56 PM


Visibility: 10 mi

Pressure: 29.84 "Hg

Humidity: 93%

Dew point: 66 °F

Location of CharlestonLocation

Historic Weather in Charleston — Graph

°F

Charleston temperature yesterday

Maximum temperature yesterday: 75 °F (at 11:56 AM)
Minimum temperature yesterday: 67 °F (at 2:56 AM)
Average temperature yesterday: 70 °F

Past Weeks' High & Low Weather Summary

 TemperatureHumidityPressure
High87 °F (Apr 8, 3:56 PM)100% (Apr 13, 1:02 AM)30.33 "Hg (Apr 13, 1:02 AM)
Low48 °F (Apr 5, 6:56 AM)27% (Apr 4, 5:56 PM)29.83 "Hg (Apr 19, 5:56 PM)
Average69 °F79%30.12 "Hg
* Reported Apr 4 5:56 PM — Apr 19 5:56 PM, Charleston, Weather by CustomWeather, © 2015

Note: Actual official high and low records may vary slightly from our data, if they occured in-between our weather recording intervals... More about our weather records

Advertising

Charleston weather history for previous 24 hours

 ConditionsComfort  
Time TempWeatherWind HumidityBarometerVisibility
5:56 PM
Sun, Apr 19
73 °FLight rain. Mostly cloudy.8 mph88%29.83 "Hg10 mi
4:56 PM75 °FMore clouds than sun.13 mph79%29.85 "Hg10 mi
3:56 PM76 °FMore clouds than sun.9 mph77%29.86 "Hg10 mi
2:56 PM76 °FMostly cloudy.13 mph82%29.89 "Hg10 mi
1:56 PM74 °FLight rain. Mostly cloudy.13 mph85%29.92 "Hg10 mi
12:56 PM74 °FLight rain. Mostly cloudy.12 mph85%29.92 "Hg10 mi
11:56 AM73 °FLight rain. Mostly cloudy.9 mph88%29.92 "Hg10 mi
10:56 AM72 °FMostly cloudy.10 mph87%29.92 "Hg10 mi
9:56 AM70 °FCloudy.6 mph90%29.95 "Hg10 mi
8:56 AM69 °FLight rain. Mostly cloudy.7 mph93%29.95 "Hg8 mi
7:56 AM68 °FLight rain. Fog.3 mph93%29.96 "Hg1 mi
6:56 AM67 °FPartly cloudy.No wind97%29.94 "Hg8 mi
5:56 AM67 °FPassing clouds.No wind93%29.93 "Hg10 mi
4:56 AM67 °FPassing clouds.No wind93%29.92 "Hg10 mi
3:56 AM67 °FPassing clouds.No wind93%29.94 "Hg10 mi
2:56 AM66 °FPassing clouds.No wind96%29.94 "Hg8 mi
1:56 AM66 °FFog.No wind93%29.96 "Hg8 mi
12:56 AM67 °FMostly cloudy.No wind93%29.97 "Hg10 mi
11:56 PM
Sat, Apr 18
67 °FMostly cloudy.No wind93%29.98 "Hg10 mi
10:56 PM68 °FPassing clouds.6 mph90%29.99 "Hg10 mi
9:56 PM68 °FOvercast.5 mph90%29.99 "Hg10 mi
8:56 PM68 °FPassing clouds.5 mph90%29.96 "Hg10 mi
7:56 PM69 °FBroken clouds.8 mph87%29.93 "Hg10 mi
Weather by CustomWeather, © 2015

See weather overviewHow to use our weather pages